Flag for U.S.A. Weather past 2 weeks in Arden-Arcade, California, U.S.A.

Now
57 °F

Passing clouds.


Feels Like: 57 °F
Forecast: 45 / 61 °F
Wind: No wind

Location: Mather Field

Current Time: Dec 22, 2014 at 5:55:49 PM

Latest Report: Dec 22, 2014 at 4:50 PM


Visibility: 10 mi

Pressure: 30.18 "Hg

Humidity: 100%

Dew point: 57 °F

Location of Arden-ArcadeLocation

Historic Weather in Arden-Arcade — Graph

°F

Arden-Arcade temperature yesterday

Maximum temperature yesterday: 63 °F (at 12:48 PM)
Minimum temperature yesterday: 48 °F (at 11:46 PM)
Average temperature yesterday: 57 °F

Past Weeks' High & Low Weather Summary

 TemperatureHumidityPressure
High63 °F (Dec 8, 1:45 PM)100% (Dec 7, 4:50 PM)30.30 "Hg (Dec 7, 4:50 PM)
Low41 °F (Dec 14, 4:48 AM)59% (Dec 8, 1:45 PM)29.55 "Hg (Dec 11, 6:45 AM)
Average52 °F96%30.07 "Hg
* Reported Dec 7 4:50 PM — Dec 22 4:50 PM, Arden-Arcade, Weather by CustomWeather, © 2014

Note: Actual official high and low records may vary slightly from our data, if they occured in-between our weather recording intervals... More about our weather records

Advertising

Arden-Arcade weather history for previous 24 hours

 ConditionsComfort  
Time TempWeatherWind HumidityBarometerVisibility
4:50 PM
Dec 22
57 °FPassing clouds.No wind100%30.18 "Hg10 mi
1:46 PM59 °FPartly sunny.10 mph100%30.19 "Hg10 mi
12:46 PM59 °FPartly sunny.12 mph100%30.21 "Hg10 mi
11:47 AM59 °FLow clouds.8 mph100%30.24 "Hg10 mi
10:47 AM57 °FLow clouds.9 mph100%30.27 "Hg10 mi
9:50 AM55 °FLow clouds.8 mph100%30.29 "Hg8 mi
8:45 AM55 °FFog.6 mph100%30.28 "Hg5 mi
7:50 AM55 °FFog.6 mph100%30.27 "Hg2 mi
6:55 AM54 °FFog.7 mph100%30.25 "Hg2 mi
5:50 AM54 °FFog.5 mph100%30.25 "Hg1 mi
4:50 AM54 °FFog.5 mph100%30.25 "Hg0 mi
3:50 AM54 °FFog.6 mph100%30.26 "Hg0 mi
3:00 AM54 °FFog.7 mph100%30.26 "Hg0 mi
1:46 AM52 °FFog.3 mph100%30.26 "Hg0 mi
12:46 AM52 °FFog.3 mph100%30.26 "Hg0 mi
11:46 PM
Dec 21
48 °FFog.No wind100%30.27 "Hg5 mi
10:46 PM52 °FClear.No wind100%30.27 "Hg8 mi
8:46 PM52 °FPassing clouds.3 mph100%30.27 "Hg10 mi
7:46 PM54 °FPassing clouds.No wind100%30.26 "Hg10 mi
6:46 PM54 °FPassing clouds.No wind100%30.26 "Hg10 mi
5:50 PM55 °FPassing clouds.No wind100%30.25 "Hg10 mi
Weather by CustomWeather, © 2014

See weather overviewHow to use our weather pages